SCP
0 0 0 0 0 0 0 0 0 0 0 0 0 0 0 0 0 0 0 0 0 0 0 0 0 0 0 0 0 0 0 0 0 0 0 0 0 0
0 0 0 0 0 0 0 0 0 0 0 0 0 0 0 0 0 0 0 0 0 0 0 0 0 0 0 0 0 0 0 0 0 0 0 0 0 0
0 0 0 0 0 0 0 0 0 0 0 0 0 0 0 0 0 0 0 0 0 0 0 -0 0 0 0 0 0 0 0 0 0 0 0 0 0 0
0 0 0 0 0 0 0 0 0 0 0 0 0 0 0 0 0 0 0 0 0 0 0 0 -0 0 0 0 0 0 0 0 0 0 0 0 0 0
0 0 0 0 0 0 0 0 0 0 0 0 0 0 0 0 0 0 0 0 0 0 0 0 0 0 0 0 0 0 0 0 0 0 0 0 0 0
0 0 0 0 0 0 0 0 0 0 0 0 0 0 0 0 0 0 0 0 0 0 0 0 0 0 0 0 0 0 0 -0 0 0 0 0 0 0
0 1 0 0 0 0 0 0 0 0 0 0 0 0 0 0 0 0 0 0 0 0 0 0 0 0 0 0 0 0 0 -0 -0 0 0 0 0 0
0 0 0 0 0 0 0 0 0 0 0 0 0 0 0 0 0 0 0 0 0 0 0 0 0 0 0 0 0 0 0 0 -0 -0 0 0 0 0
0 0 0 0 0 0 0 0 0 0 0 0 0 0 0 0 0 0 0 0 0 0 0 0 0 0 0 0 0 0 0 0 -0 -0 -0 0 0 0
0 0 0 0 0 0 0 0 0 0 0 0 0 0 0 0 0 0 0 0 0 0 0 0 0 0 0 0 0 0 0 0 0 -0 -0 -0 -0 0
0 0 0 0 0 0 0 0 0 0 0 0 0 0 0 0 0 0 0 0 0 0 0 0 0 0 0 0 0 0 0 0 0 -0 0 -0 0 0
0 0 0 0 0 0 0 0 0 0 0 0 0 0 0 0 0 0 0 0 0 0 0 0 0 0 0 0 0 0 0 0 0 0 0 0 0 0
0 0 0 0 0 0 0 0 0 0 0 0 0 0 0 0 -0 -0 -0 0 0 0 0 0 0 0 0 0 0 0 0 0 0 0 0 0 0 0
0 0 0 0 0 0 0 0 0 0 0 0 0 0 0 0 0 0 0 0 0 0 0 0 0 0 0 0 0 0 0 0 0 0 0 0 0 0
0 0 0 0 0 0 0 0 0 0 0 0 0 0 0 0 0 0 0 0 0 0 0 0 0 0 0 0 0 0 0 0 0 0 0 0 0 -0
0 0 0 0 0 0 0 0 0 0 0 0 0 0 0 0 0 0 0 0 0 0 0 0 0 0 0 0 0 0 0 0 0 0 0 0 0 0
0 0 0 0 0 0 0 0 0 0 0 0 0 0 0 0 0 0 0 0 0 0 0 0 0 0 0 0 0 0 0 0 0 0 0 0 0 0
0 0 0 0 0 0 0 0 0 0 0 0 0 0 0 0 0 0 0 0 0 0 0 0 0 0 0 0 0 0 0 0 0 0 0 0 0 0
0 0 0 0 0 0 0 0 0 0 0 0 0 0 0 0 0 0 0 0 0 0 0 0 0 0 0 0 0 0 0 0 0 0 0 0 0 0
0 0 0 0 0 0 0 0 0 0 0 0 0 0 0 0 0 0 0 0 0 0 0 0 0 0 0 0 0 0 0 0 0 0 0 0 0 0
0 0 0 0 0 0 0 0 0 0 0 0 0 0 0 0 0 0 0 0 0 0 0 0 0 0 0 0 0 0 0 0 0 0 0 0 0 0
0 0 0 0 0 0 0 0 0 0 0 0 0 0 0 0 0 0 0 0 0 0 0 0 0 0 0 0 0 0 0 0 0 0 0 0 0 0
0 0 0 0 0 0 0 0 0 0 0 0 0 0 0 0 0 0 -0 -0 -0 0 0 0 0 0 0 0 0 0 0 0 -0 0 0 0 0 0
Wind_Speed_500mb
12 17 20 17 11 21 20 16 12 19 25 31 34 34 29 26 23 25 22 15 14 14 19 19 19 19 19 20 22 23 26 25 26 35 41 49 58 66
17 17 15 16 16 18 16 21 21 16 16 31 38 28 31 22 23 25 20 14 10 14 22 25 19 18 18 19 20 21 22 23 25 28 34 41 44 45
21 16 18 19 19 21 21 16 12 22 15 23 29 30 28 17 14 21 17 15 17 17 18 25 20 15 15 15 18 20 21 23 23 24 26 29 27 31
28 28 26 27 19 21 24 21 19 15 21 21 34 32 27 20 19 24 17 20 16 8 12 15 19 21 22 19 24 19 18 20 21 21 21 18 8 17
33 32 22 27 24 21 14 12 6 9 13 21 32 31 31 23 24 17 10 5 9 10 15 11 15 18 19 16 18 20 20 20 24 26 23 18 12 7
34 27 23 31 32 24 18 15 9 10 21 22 21 23 15 6 10 12 12 6 5 4 6 9 18 23 29 22 19 13 12 19 27 26 25 23 20 18
43 38 32 34 32 27 21 18 17 16 21 24 20 22 22 15 8 9 11 9 12 17 10 16 20 18 16 17 19 17 12 21 30 30 27 23 23 21
45 40 30 35 37 27 22 21 19 23 23 25 24 26 30 22 23 21 19 15 11 11 12 16 13 17 10 8 10 12 14 26 28 31 28 23 23 24
51 36 27 27 34 33 30 27 21 23 24 28 26 14 27 33 29 28 26 22 19 14 20 19 15 17 16 14 16 17 18 21 26 24 25 23 23 24
51 28 22 24 32 37 33 32 28 25 24 26 26 27 22 23 24 25 22 13 8 7 22 29 16 19 15 15 19 20 19 21 26 20 19 22 21 21
49 23 25 28 29 33 35 34 30 28 25 23 20 13 14 14 12 10 19 12 1 15 11 18 16 17 20 20 17 18 18 21 25 22 23 24 28 31
28 31 26 29 34 35 29 34 33 29 26 24 19 12 6 12 14 12 14 8 6 10 11 5 18 24 23 19 17 14 19 26 26 28 33 29 32 34
13 13 18 24 38 36 32 31 27 24 24 19 11 20 19 13 13 15 11 6 10 8 14 21 28 30 25 25 18 23 31 24 31 30 25 27 32 31
10 4 8 11 36 39 34 32 31 23 21 17 21 20 13 12 10 13 18 15 12 10 18 24 24 20 18 23 26 25 27 33 30 27 22 26 27 32
27 13 13 22 15 37 41 39 36 36 24 18 17 10 15 13 11 3 10 10 10 13 20 24 24 20 19 21 29 24 31 27 19 23 25 30 41 48
44 40 29 34 36 32 50 52 43 40 34 29 19 19 15 8 5 10 10 12 13 18 23 23 16 16 20 20 15 20 19 20 25 25 32 40 48 50
44 45 35 37 43 38 51 50 52 42 38 40 18 14 21 18 9 4 7 11 15 20 21 18 17 24 21 17 16 19 24 19 23 29 40 50 51 49
39 39 34 38 38 38 51 52 49 42 36 39 20 20 22 18 13 19 16 19 19 23 17 22 28 22 15 17 15 16 19 26 27 35 42 45 47 28
27 28 37 40 38 41 52 42 38 33 34 37 29 23 16 18 17 7 10 16 20 18 26 32 15 13 14 16 20 23 29 23 36 37 34 30 27 19
25 27 27 31 41 45 44 37 39 34 37 33 23 24 22 11 10 6 18 18 14 20 3 4 14 17 18 17 23 31 25 32 30 29 26 24 19 15
27 25 24 26 30 39 45 44 33 32 40 38 31 25 12 9 5 14 20 16 12 11 14 14 16 14 18 22 29 28 27 22 19 22 25 27 30 31
19 22 25 28 38 42 46 38 34 52 55 42 31 18 3 6 15 5 7 7 8 6 10 13 17 18 15 20 22 22 17 14 16 25 28 31 37 38
17 22 24 39 45 42 40 48 52 51 33 23 17 16 10 12 6 8 6 5 11 17 13 15 17 20 20 16 19 10 9 19 23 25 25 28 27 25
Wind_Direction_500mb
185 200 204 238 243 227 225 213 208 224 215 208 213 220 230 232 237 259 265 270 320 328 343 333 311 301 297 295 295 292 289 285 271 259 256 253 254 250
209 181 216 252 254 249 228 229 236 233 224 221 229 232 229 231 260 261 258 279 320 329 350 359 336 315 312 312 312 311 305 300 294 286 278 271 266 257
246 244 251 259 255 255 262 263 267 259 242 216 221 215 213 228 243 232 249 260 288 289 340 8 22 10 359 348 336 329 326 320 318 312 303 291 272 259
250 245 248 261 261 250 248 259 269 252 234 204 193 196 214 231 243 233 249 265 276 274 337 17 35 41 40 29 17 357 342 335 334 332 334 340 334 251
251 240 251 279 266 265 267 248 244 192 183 199 191 200 206 246 239 253 198 291 314 290 305 334 351 346 349 351 10 25 30 12 356 344 339 339 348 311
265 251 247 303 277 270 260 247 203 175 183 186 203 219 216 200 196 227 208 234 240 278 310 320 329 326 312 304 330 341 2 4 357 348 340 335 335 334
247 239 239 292 267 265 243 217 207 192 170 170 193 214 216 219 198 199 183 252 229 255 281 314 309 322 317 291 283 301 321 348 349 344 330 323 317 314
251 238 243 276 257 249 231 229 194 190 189 199 208 219 220 225 208 210 208 229 227 240 237 292 294 312 335 302 267 293 309 328 338 343 333 317 311 307
236 220 274 255 248 237 238 225 210 201 212 215 222 205 210 211 212 210 238 253 251 230 235 269 289 305 312 334 344 334 318 324 336 337 341 327 316 311
232 242 263 236 233 229 232 218 218 211 209 223 227 224 218 225 244 260 245 231 222 251 268 265 271 298 316 330 335 330 322 327 329 327 337 347 350 347
235 261 254 234 219 217 218 216 213 214 212 217 218 215 235 252 247 245 184 177 327 1 335 256 253 294 312 313 328 320 311 316 324 313 311 316 326 329
238 270 228 215 208 210 213 219 209 207 211 201 206 207 169 134 115 133 177 184 249 313 344 265 262 291 305 294 312 299 313 319 316 319 313 311 319 320
247 236 213 217 202 208 211 212 203 199 194 187 187 161 144 168 160 159 165 182 220 290 298 302 298 305 290 300 287 289 310 310 315 317 312 317 318 314
197 179 255 246 210 211 213 201 186 199 204 195 173 171 195 222 217 221 226 237 263 311 304 319 310 308 313 298 296 302 312 310 315 318 321 312 321 327
219 226 263 238 230 219 210 198 194 200 193 173 182 216 269 222 180 161 212 222 273 304 316 313 309 296 295 294 297 302 309 308 310 320 318 319 321 317
242 265 264 259 215 218 210 196 201 200 206 202 224 240 221 190 236 288 248 250 306 302 293 293 293 295 308 312 303 325 327 313 319 310 311 311 313 321
251 250 257 213 204 218 212 204 204 207 206 202 203 200 190 210 240 213 252 259 283 310 307 307 317 317 314 314 297 318 319 314 304 303 308 317 315 318
243 245 234 225 231 223 209 206 205 207 203 204 208 232 219 214 239 287 275 285 301 299 287 314 317 310 306 339 331 337 331 327 322 320 327 322 328 338
213 220 230 228 231 220 208 205 208 210 204 201 204 223 217 253 267 294 260 314 328 320 315 310 320 326 327 316 314 325 324 320 319 321 327 342 346 16
218 222 237 227 232 213 197 181 172 176 189 203 216 227 228 241 232 246 314 322 316 320 342 300 305 303 304 303 299 319 313 318 330 333 337 343 342 337
216 223 217 196 199 195 185 191 198 209 208 200 204 216 232 227 241 291 309 291 311 297 306 306 309 297 282 287 298 307 323 339 337 337 333 323 323 318
207 210 195 219 188 191 190 213 207 192 193 196 196 187 153 303 282 287 270 267 286 283 324 355 350 338 317 320 312 321 335 341 347 332 324 315 309 305
196 198 202 181 177 193 205 184 183 187 210 214 194 179 213 271 251 246 254 299 319 321 328 331 318 321 320 336 343 15 352 351 341 344 339 336 325 293
Wind_Speed_850mb
12 17 20 17 11 21 20 16 12 19 25 31 34 34 29 26 23 25 22 15 14 14 19 19 19 19 19 20 22 23 26 25 26 35 41 49 58 66
17 17 15 16 16 18 16 21 21 16 16 31 38 28 31 22 23 25 20 14 10 14 22 25 19 18 18 19 20 21 22 23 25 28 34 41 44 45
21 16 18 19 19 21 21 16 12 22 15 23 29 30 28 17 14 21 17 15 17 17 18 25 20 15 15 15 18 20 21 23 23 24 26 29 27 31
28 28 26 27 19 21 24 21 19 15 21 21 34 32 27 20 19 24 17 20 16 8 12 15 19 21 22 19 24 19 18 20 21 21 21 18 8 17
33 32 22 27 24 21 14 12 6 9 13 21 32 31 31 23 24 17 10 5 9 10 15 11 15 18 19 16 18 20 20 20 24 26 23 18 12 7
34 27 23 31 32 24 18 15 9 10 21 22 21 23 15 6 10 12 12 6 5 4 6 9 18 23 29 22 19 13 12 19 27 26 25 23 20 18
43 38 32 34 32 27 21 18 17 16 21 24 20 22 22 15 8 9 11 9 12 17 10 16 20 18 16 17 19 17 12 21 30 30 27 23 23 21
45 40 30 35 37 27 22 21 19 23 23 25 24 26 30 22 23 21 19 15 11 11 12 16 13 17 10 8 10 12 14 26 28 31 28 23 23 24
51 36 27 27 34 33 30 27 21 23 24 28 26 14 27 33 29 28 26 22 19 14 20 19 15 17 16 14 16 17 18 21 26 24 25 23 23 24
51 28 22 24 32 37 33 32 28 25 24 26 26 27 22 23 24 25 22 13 8 7 22 29 16 19 15 15 19 20 19 21 26 20 19 22 21 21
49 23 25 28 29 33 35 34 30 28 25 23 20 13 14 14 12 10 19 12 1 15 11 18 16 17 20 20 17 18 18 21 25 22 23 24 28 31
28 31 26 29 34 35 29 34 33 29 26 24 19 12 6 12 14 12 14 8 6 10 11 5 18 24 23 19 17 14 19 26 26 28 33 29 32 34
13 13 18 24 38 36 32 31 27 24 24 19 11 20 19 13 13 15 11 6 10 8 14 21 28 30 25 25 18 23 31 24 31 30 25 27 32 31
10 4 8 11 36 39 34 32 31 23 21 17 21 20 13 12 10 13 18 15 12 10 18 24 24 20 18 23 26 25 27 33 30 27 22 26 27 32
27 13 13 22 15 37 41 39 36 36 24 18 17 10 15 13 11 3 10 10 10 13 20 24 24 20 19 21 29 24 31 27 19 23 25 30 41 48
44 40 29 34 36 32 50 52 43 40 34 29 19 19 15 8 5 10 10 12 13 18 23 23 16 16 20 20 15 20 19 20 25 25 32 40 48 50
44 45 35 37 43 38 51 50 52 42 38 40 18 14 21 18 9 4 7 11 15 20 21 18 17 24 21 17 16 19 24 19 23 29 40 50 51 49
39 39 34 38 38 38 51 52 49 42 36 39 20 20 22 18 13 19 16 19 19 23 17 22 28 22 15 17 15 16 19 26 27 35 42 45 47 28
27 28 37 40 38 41 52 42 38 33 34 37 29 23 16 18 17 7 10 16 20 18 26 32 15 13 14 16 20 23 29 23 36 37 34 30 27 19
25 27 27 31 41 45 44 37 39 34 37 33 23 24 22 11 10 6 18 18 14 20 3 4 14 17 18 17 23 31 25 32 30 29 26 24 19 15
27 25 24 26 30 39 45 44 33 32 40 38 31 25 12 9 5 14 20 16 12 11 14 14 16 14 18 22 29 28 27 22 19 22 25 27 30 31
19 22 25 28 38 42 46 38 34 52 55 42 31 18 3 6 15 5 7 7 8 6 10 13 17 18 15 20 22 22 17 14 16 25 28 31 37 38
17 22 24 39 45 42 40 48 52 51 33 23 17 16 10 12 6 8 6 5 11 17 13 15 17 20 20 16 19 10 9 19 23 25 25 28 27 25
Wind_Direction_850mb
185 200 204 238 243 227 225 213 208 224 215 208 213 220 230 232 237 259 265 270 320 328 343 333 311 301 297 295 295 292 289 285 271 259 256 253 254 250
209 181 216 252 254 249 228 229 236 233 224 221 229 232 229 231 260 261 258 279 320 329 350 359 336 315 312 312 312 311 305 300 294 286 278 271 266 257
246 244 251 259 255 255 262 263 267 259 242 216 221 215 213 228 243 232 249 260 288 289 340 8 22 10 359 348 336 329 326 320 318 312 303 291 272 259
250 245 248 261 261 250 248 259 269 252 234 204 193 196 214 231 243 233 249 265 276 274 337 17 35 41 40 29 17 357 342 335 334 332 334 340 334 251
251 240 251 279 266 265 267 248 244 192 183 199 191 200 206 246 239 253 198 291 314 290 305 334 351 346 349 351 10 25 30 12 356 344 339 339 348 311
265 251 247 303 277 270 260 247 203 175 183 186 203 219 216 200 196 227 208 234 240 278 310 320 329 326 312 304 330 341 2 4 357 348 340 335 335 334
247 239 239 292 267 265 243 217 207 192 170 170 193 214 216 219 198 199 183 252 229 255 281 314 309 322 317 291 283 301 321 348 349 344 330 323 317 314
251 238 243 276 257 249 231 229 194 190 189 199 208 219 220 225 208 210 208 229 227 240 237 292 294 312 335 302 267 293 309 328 338 343 333 317 311 307
236 220 274 255 248 237 238 225 210 201 212 215 222 205 210 211 212 210 238 253 251 230 235 269 289 305 312 334 344 334 318 324 336 337 341 327 316 311
232 242 263 236 233 229 232 218 218 211 209 223 227 224 218 225 244 260 245 231 222 251 268 265 271 298 316 330 335 330 322 327 329 327 337 347 350 347
235 261 254 234 219 217 218 216 213 214 212 217 218 215 235 252 247 245 184 177 327 1 335 256 253 294 312 313 328 320 311 316 324 313 311 316 326 329
238 270 228 215 208 210 213 219 209 207 211 201 206 207 169 134 115 133 177 184 249 313 344 265 262 291 305 294 312 299 313 319 316 319 313 311 319 320
247 236 213 217 202 208 211 212 203 199 194 187 187 161 144 168 160 159 165 182 220 290 298 302 298 305 290 300 287 289 310 310 315 317 312 317 318 314
197 179 255 246 210 211 213 201 186 199 204 195 173 171 195 222 217 221 226 237 263 311 304 319 310 308 313 298 296 302 312 310 315 318 321 312 321 327
219 226 263 238 230 219 210 198 194 200 193 173 182 216 269 222 180 161 212 222 273 304 316 313 309 296 295 294 297 302 309 308 310 320 318 319 321 317
242 265 264 259 215 218 210 196 201 200 206 202 224 240 221 190 236 288 248 250 306 302 293 293 293 295 308 312 303 325 327 313 319 310 311 311 313 321
251 250 257 213 204 218 212 204 204 207 206 202 203 200 190 210 240 213 252 259 283 310 307 307 317 317 314 314 297 318 319 314 304 303 308 317 315 318
243 245 234 225 231 223 209 206 205 207 203 204 208 232 219 214 239 287 275 285 301 299 287 314 317 310 306 339 331 337 331 327 322 320 327 322 328 338
213 220 230 228 231 220 208 205 208 210 204 201 204 223 217 253 267 294 260 314 328 320 315 310 320 326 327 316 314 325 324 320 319 321 327 342 346 16
218 222 237 227 232 213 197 181 172 176 189 203 216 227 228 241 232 246 314 322 316 320 342 300 305 303 304 303 299 319 313 318 330 333 337 343 342 337
216 223 217 196 199 195 185 191 198 209 208 200 204 216 232 227 241 291 309 291 311 297 306 306 309 297 282 287 298 307 323 339 337 337 333 323 323 318
207 210 195 219 188 191 190 213 207 192 193 196 196 187 153 303 282 287 270 267 286 283 324 355 350 338 317 320 312 321 335 341 347 332 324 315 309 305
196 198 202 181 177 193 205 184 183 187 210 214 194 179 213 271 251 246 254 299 319 321 328 331 318 321 320 336 343 15 352 351 341 344 339 336 325 293